San Carlos, CA

8:09 PM PDT on June 26, 2017 (GMT -0700)
San Carlos

Weather History for KSQL - March, 2014

Change the Weather History Date:

Saturday, March 8, 2014

  Actual Average Record
Temperature  
Mean Temperature 60 °F -  
Max Temperature 71 °F 64 °F 80 °F (2004)
Min Temperature 48 °F 44 °F 34 °F (1969)
Degree Days  
Heating Degree Days 6    
Growing Degree Days 10 (Base 50)    
Moisture  
Dew Point 47 °F    
Average Humidity 75    
Maximum Humidity 93    
Minimum Humidity 38    
Precipitation  
Precipitation 0.00 in - - ()
Sea Level Pressure  
Sea Level Pressure 30.16 in    
Wind  
Wind Speed 2 mph (NW)    
Max Wind Speed 8 mph    
Max Gust Speed -    
Visibility 10 miles    
Events      
Averages and records for this station are not official NWS values.
T = Trace of Precipitation, MM = Missing Value Source: NWS Daily Summary

Daily Weather History Graph

Daily Weather History Graph

Search for Another Location

Airport or City:

Trip Planner

Search our weather history database for the weather conditions in past years. The results will help you decide how hot, cold, wet, or windy it might be!

Date:

Astronomy

Mar. 08, 2014 Rise Set
Actual Time 6:30 AM PST 6:09 PM PST
Civil Twilight 6:04 AM PST 6:35 PM PST
Nautical Twilight 5:33 AM PST 7:06 PM PST
Astronomical Twilight 5:03 AM PST 7:36 PM PST
Moon 11:23 AM PST (3/8) 1:04 AM PST (3/8)
Length of Visible Light 12h 31m
Length of Day
11h 39m
First Quarter, 53% of the Moon is Illuminated
Mar 8
First Quarter
Mar 16
Full
Mar 23
Last Quarter
Mar 30
New
Apr 7
First Quarter

Hourly Weather History & Observations

Time (PST) Temp. Dew Point Humidity Pressure Visibility Wind Dir Wind Speed Gust Speed Precip Events Conditions
12:15 AM 50.0 °F 46.4 °F 87% 30.15 in 10.0 mi Calm Calm - N/A   Clear
12:35 AM 50.0 °F 46.4 °F 87% 30.16 in 10.0 mi Calm Calm - N/A   Clear
12:50 AM 50.0 °F 46.4 °F 87% 30.15 in 10.0 mi Calm Calm - N/A   Clear
1:15 AM 50.0 °F 46.4 °F 87% 30.15 in 10.0 mi SSW 3.5 mph - N/A   Clear
1:35 AM 50.0 °F 46.4 °F 87% 30.14 in 10.0 mi Calm Calm - N/A   Clear
1:50 AM 48.2 °F 46.4 °F 93% 30.14 in 10.0 mi Calm Calm - N/A   Clear
2:15 AM 48.2 °F 46.4 °F 93% 30.13 in 10.0 mi Calm Calm - N/A   Clear
2:35 AM 48.2 °F 46.4 °F 93% 30.13 in 10.0 mi South 3.5 mph - N/A   Clear
2:50 AM 48.2 °F 46.4 °F 93% 30.13 in 10.0 mi Calm Calm - N/A   Clear
3:15 AM 48.2 °F 46.4 °F 93% 30.12 in 10.0 mi Calm Calm - N/A   Clear
3:35 AM 48.2 °F 46.4 °F 93% 30.13 in 10.0 mi Calm Calm - N/A   Clear
3:55 AM 48.2 °F 46.4 °F 93% 30.13 in 10.0 mi NW 3.5 mph - N/A   Clear
4:15 AM 48.2 °F 46.4 °F 93% 30.14 in 10.0 mi NW 4.6 mph - N/A   Clear
4:35 AM 48.2 °F 46.4 °F 93% 30.15 in 10.0 mi NW 4.6 mph - N/A   Clear
4:55 AM 48.2 °F 46.4 °F 93% 30.15 in 10.0 mi NW 6.9 mph - N/A   Clear
5:10 AM 48.2 °F 44.6 °F 87% 30.15 in 10.0 mi WNW 4.6 mph - N/A   Scattered Clouds
5:35 AM 50.0 °F 46.4 °F 87% 30.15 in 10.0 mi Calm Calm - N/A   Overcast
5:55 AM 48.2 °F 46.4 °F 93% 30.15 in 10.0 mi South 4.6 mph - N/A   Mostly Cloudy
6:10 AM 48.2 °F 46.4 °F 93% 30.15 in 10.0 mi SSW 4.6 mph - N/A   Mostly Cloudy
6:35 AM 48.2 °F 46.4 °F 93% 30.16 in 10.0 mi SW 3.5 mph - N/A   Partly Cloudy
6:47 AM 48.2 °F 46.4 °F 93% 30.17 in 10.0 mi Calm Calm - N/A   Scattered Clouds
6:55 AM 48.2 °F 46.4 °F 93% 30.17 in 10.0 mi Calm Calm - N/A   Clear
7:47 AM 53.6 °F 48.2 °F 82% 30.18 in 10.0 mi Calm Calm - N/A   Mostly Cloudy
8:48 AM 55.4 °F 51.8 °F 88% 30.19 in 10.0 mi East 3.5 mph - N/A   Mostly Cloudy
9:49 AM 57.2 °F 51.8 °F 82% 30.20 in 10.0 mi ENE 3.5 mph - N/A   Mostly Cloudy
10:47 AM 60.8 °F 53.6 °F 77% 30.19 in 10.0 mi East 3.5 mph - N/A   Mostly Cloudy
11:47 AM 64.4 °F 53.6 °F 68% 30.18 in 10.0 mi ENE 4.6 mph - N/A   Mostly Cloudy
12:47 PM 66.2 °F 50.0 °F 56% 30.17 in 10.0 mi NNE 4.6 mph - N/A   Mostly Cloudy
1:47 PM 71.6 °F 44.6 °F 38% 30.15 in 10.0 mi North 5.8 mph - N/A   Mostly Cloudy
2:47 PM 71.6 °F 46.4 °F 41% 30.14 in 10.0 mi NNE 3.5 mph - N/A   Mostly Cloudy
3:50 PM 68.0 °F 48.2 °F 49% 30.13 in 10.0 mi North 8.1 mph - N/A   Mostly Cloudy
4:47 PM 66.2 °F 51.8 °F 60% 30.13 in 10.0 mi NW 6.9 mph - N/A   Mostly Cloudy
5:50 PM 68.0 °F 50.0 °F 52% 30.15 in 10.0 mi NW 5.8 mph - N/A   Mostly Cloudy
6:47 PM 66.2 °F 48.2 °F 52% 30.16 in 10.0 mi WNW 3.5 mph - N/A   Mostly Cloudy
7:47 PM 66.2 °F 48.2 °F 52% 30.18 in 10.0 mi Calm Calm - N/A   Clear
8:47 PM 64.4 °F 48.2 °F 56% 30.19 in 10.0 mi WNW 4.6 mph - N/A   Clear
9:10 PM 62.6 °F 48.2 °F 59% 30.20 in 10.0 mi WNW 5.8 mph - N/A   Clear
9:35 PM 62.6 °F 48.2 °F 59% 30.20 in 10.0 mi NW 8.1 mph - N/A   Clear
9:55 PM 64.4 °F 46.4 °F 52% 30.21 in 10.0 mi NW 6.9 mph - N/A   Clear
10:15 PM 62.6 °F 46.4 °F 55% 30.21 in 10.0 mi WNW 4.6 mph - N/A   Clear
10:35 PM 62.6 °F 44.6 °F 52% 30.21 in 10.0 mi Calm Calm - N/A   Clear
10:55 PM 62.6 °F 44.6 °F 52% 30.21 in 10.0 mi Calm Calm - N/A   Clear
11:10 PM 62.6 °F 44.6 °F 52% 30.21 in 10.0 mi Calm Calm - N/A   Clear
11:35 PM 60.8 °F 50.0 °F 68% 30.20 in 10.0 mi SSE 3.5 mph - N/A   Clear
11:55 PM 59.0 °F 48.2 °F 67% 30.20 in 10.0 mi SSW 3.5 mph - N/A   Clear